Погода в Тюмени

Погода в Тюмени : погода сейчас, прогноз погоды и архив. Всё, что Вы хотите узнать о погоде в Тюмени!

Хотите узнать прогноз погоды в Тюмени? Тогда Вам сюда: Погода в Тюмени

Поиск расширенной информации на нашем сайте:

Другие новости

Новости СМИ2

Главная страница сайта

Новости сайта

02.10.2013

Напоминаем, что на нашем новом сайте вы можете получить высокодетализированные прогнозы погоды по пунктам России, СНГ и мира (включающие важные для авиации метеовеличины, такие как направление и скорость ветра, видимость, явления погоды, количество и форма облачности, нижняя и верхняя граница облачности), а также ознакомиться с разнообразными материалами по авиационной метеорологии и подборкой полезных ссылок на эту тему.

Сайт Метеоцентр.Азия посвящён разработке технологий оптимизации авиаметеорологического обслуживания, включая проектирование и перспективное создание нескольких автоматизированных авиаметеорологических систем:
- система выпуска высокодетальных прогностических карт явлений погоды для нижнего воздушного пространства по России и ближнему зарубежью;
- система верификации прогнозов TAF (выпускаемых синоптиками официальных АМСГ РФ и ближнего зарубежья) и AUTOTAF (выпускаемых сайтом Метеоцентр.Азия) - выявление ошибок, онлайн-сопоставление с фактической погодой METAR, автоматическое внесение коррективов в прогнозы при резком отклонении фактической погоды от прогноза, подсчёт оправдываемости прогнозов по элементам и в целом;
- система обработки, анализа и отображения авиаметеорологической информации для применения провайдерами метеорологической информации.


Погода в Тюмени - сегодня

Время (UTC), дата Ветер
(°,м/с) 
Видим.   Явления Облачность Т
(°С)
Тd
(°С)
f(%) Тe
(°С)
Pmin
(гПа)
dP
(гПа)
Po
(мм)
O2
(г/м3)
Тmin Tmax R s Состояние
почвы
21 20.06.17 180 (Ю) 50000 м    6/0 средняя, верхняя 
[Ac trans|Ci fib]
+13.3 +12.2 93 +20  996.1  -0.6  738  281           
00 21.06.17 тихо ()   4000 м    3/0 верхняя 
[Ci fib]
+12.5 +12.2 98 +17  995.9  -0.3  738  282           
03 21.06.17 140 (ЮВ) 4000 м    6/0 средняя, верхняя 
[Ac trans|Ci]
+18.4 +13.9 75 +27  995.2  -0.5  738  276  +11.6         
06 21.06.17 170 (Ю) 4000 м    6/1 600 м средняя, верхняя 
[Cu med, cong|Ac cast|Ci sp]
+22.3 +12.6 54 +27  994.5  -0.5  737  272           
09 21.06.17 180 (Ю) 4000 м    6/5 600 м верхняя 
[Cu med, cong|Ci sp]
+23.1 +14.2 57 +31  994.2  -0.3  737  271           
12 21.06.17 200 (Ю) 4000 м    5/3 600 м средняя, верхняя 
[Cu med, cong|Ac trans|Ci fib]
+23.2 +11.9 49 +27  994.6  0.4  737  272           
18 21.06.17 250 (З) 50000 м    4/0 верхняя 
[Ci fib]
+15.5 +14 91 +23  998.2  1.6  740  279           
21 21.06.17 250 (З) 50000 м    ясно 
+13.9 +13.4 97 +21  999.4  1.1  741  281           
00 22.06.17 270 (З) 4000 м    ясно 
+13.7 +13.3 97 +21  1000.7  1.3  742  282           
03 22.06.17 280 (З) 4000 м    ясно 
+19.1 +14.1 73 +27  1002  1.5  743  277  +13.2         
06 22.06.17 250 (З) 4000 м    9/1 1000 м верхняя 
[Cu med, cong|Ci fib]
+22.3 +14.5 61 +30  1003.1  1.2  744  274           
09 22.06.17 270 (З) 4000 м    8/1 1000 м верхняя 
[Cu hum|Ci fib]
+24 +12.6 49 +29  1003.6  0.6  744  273           
12 22.06.17 200 (Ю) 4000 м    ясно 
+25.1 +9.9 38 +26  1003.5  0.1  744  273           
18 22.06.17 170 (Ю) 50000 м    ясно 
+18.3 +12.8 70 +25  1004.8  0.4  745  279           
21 22.06.17 150 (ЮВ) 50000 м    ясно 
+14.2 +13 92 +21  1005.1  0.2  745  283           
00 23.06.17 140 (ЮВ) 4000 м    8/0 верхняя 
[Ci fib]
+14.9 +12.5 86 +21  1004.8  -0.3  745  282           
03 23.06.17 160 (Ю) 4000 м    8/0 верхняя 
[Ci fib]
+20.8 +12.9 61 +26  1004.6  745  276  +13.4         
06 23.06.17 160 (Ю) 4000 м    8/0 верхняя 
[Ci]
+24.7 +13 48 +30  1003.7  -0.7  744  272           
09 23.06.17 150 (ЮВ) 4{11}  4000 м    8/4 1000 м верхняя 
[Cu hum|Ci fib]
+26.1 +12.6 43 +31  1003.3  -0.4  744  271           
12 23.06.17 160 (Ю) 4{10}  4000 м    8/3 1000 м верхняя 
[Cu hum|Ci fib]
+26.2 +12.5 43 +31  1002.5  -0.8  743  271           
18 23.06.17 300 (СЗ) 50000 м    9/5 600 м средняя, верхняя 
[Sc diur, vesp|Ac lent|Cc]
+17.2 +13.4 78 +24  1004.3  1.2  744  279           
21 23.06.17 220 (ЮЗ) 50000 м  гроза без осадков  9/9 600 м кучево-дожд. 
[Cb calv]
+15.6 +14 90 +23  1004.6  0.3  745  281           
00 24.06.17 300 (СЗ) 2{10}  4000 м  дымка{гроза, ливн. осадки}  9/6 300 м кучево-дожд., средняя, верхняя 
[Cb calv|Ac lent|Cs]
+14.3 +13.5 95 +21  1004.4  -0.3  744  282           
03 24.06.17 320 (СЗ) 4000 м  в посл. час ливневой дождь  9/6 600 м кучево-дожд., средняя 
[Cb cap|Ac lent]
+15.9 +13.6 86 +24  1004.9  0.5  745  281  +14.2       
06 24.06.17 300 (СЗ) 4000 м  {ливн. осадки}  8/3 600 м средняя, верхняя 
[Cu med, cong|Ac cast|Ci fib]
+20.1 +14.2 69 +28  1004.8  0.1  745  277           
Время (UTC), дата Ветер
(°,м/с) 
Видим.   Явления Облачность Т
(°С)
Тd
(°С)
f(%) Тe
(°С)
Pmin
(гПа)
dP
(гПа)
Po
(мм)
O2
(г/м3)
Тmin Tmax R s Состояние
почвы

Для получения пояснительной информации подведите курсор к названию столбца.

ПОГОДА в Тюмени - архив

Всё, что Вы хотите узнать о погоде в Тюмени - удобно и подробно!

Выберите нужную дату (начиная с 1 января 2015* года) и нажмите кнопку "Найти".
Будут отображены архивные сводки погоды по пункту Тюмень, начиная с указанной даты.


Отображать данные в формате CSV (для использования в таблицах Excel)


Внимание! Наш архив погоды предназначен исключительно для личного некоммерческого использования в познавательных целях. Если Вам необходимы официальные справки о состоянии погоды (для производственных, юридических, коммерческих и т.п. целей), обращайтесь в органы Росгидромета.

*Примечание: данная дата относится к архиву по метеостанциям СССР (Россия, СНГ, Балтия).
Архив по метеостанциям Зарубежной Европы и Азии (кроме Китая) хранится 10 дней, по другим регионам земного шара (Китай, Африка, Америка, Австралия, Океания) - 1 день.

Тюмень - район местоположения метеостанции


Название, широта, долгота, высота метеостанции:
Тюмень 57.1°ш. 65.4°д. 102 м над ур. моря [Российская Федерация]

Дополнительная информация

В oтличие oт бoльшинства пoгoдных сайтoв мы публикуем пoдрoбную метеoинфoрмацию в детальнoм прoфессиoнальнoм фoрмате.

Характеристики температуры и влажнoсти вoздуха измеряются на высoте 2 м в тени вдали oт зданий и деревьев.
Скoрoсть ветра измеряется на высoте 10 м (на урoвне рoста челoвека скoрoсть ветра ниже в 1.5-2 раза). Если метеoстанция нахoдится в гoрoде или в лесу, тo скoрoсть ветра занижена на 2-4 м/с пo сравнению с oткрытым местoм. Скoрoсть ветра над акватoриями крупных рек и oзёр, а также на вершинах хoлмoв на 2-5 м/с выше, чем в oбычных услoвиях.
Атмoсфернoе давление в разных тoчках местнoсти мoжет значительнo oтличаться oт давления на метеoстанции, в зависимoсти oт услoвий рельефа (при пoдъёме на 10 м давление пoнижается примернo на 1 мм рт.ст.).